{"data":{"norad_id":65500,"epoch":"2026-05-24T21:10:13.105632Z","epoch_age_seconds":81854,"freshness":"FRESH","line1":"1 65500U 25198J   26144.88209613  .00013122  00000+0  45420-3 0  9991","line2":"2 65500  53.1603 277.2190 0001029  90.9393 269.1725 15.30213018 40289","mean_motion":15.30213018,"eccentricity":0.0001029,"inclination_deg":53.1603,"raan_deg":277.219,"arg_perigee_deg":90.9393,"mean_anomaly_deg":269.1725,"bstar":0.0004542,"rev_number":4028,"period_min":94.10454512288,"perigee_km":474.47099436509,"apogee_km":475.88140622171,"semimajor_km":6853.3132002934,"source":"CELESTRAK","updated_at":"2026-05-25T13:38:20.841125Z"}}